Retour au catalogue

FENGYUN 1C DEB

ActifSSO
NORAD 29914·DEBRIS·🇨🇳 China

Lancé May 10, 1999 depuis Taiyuan Satellite Launch Center

Loading…

Prochains Passages (prochaines 24 heures)

TLE

FraisSource: Space-Track

Époque: Sep 14, 2026, 07:33 UTC

1 29914U 99025HL  26257.31473473  .00000162  00000-0  13022-3 0  9994
2 29914  98.8182 282.7488 0036338  67.1392 356.7384 14.03234592  6503

Suivez FENGYUN 1C DEB en temps réel avec AllMySat

Download on the App Store